| time (UTC) | temp C | wind direction | speed KPH | gust KPH | rain 1hr cm | rain 24hr cm | rain mn cm | humidity % | barometer mb |
| 20260507125403 | 13 | 0 | 0.0 | 4.8 | 0.00 | 0.00 | 0.00 | 51 | 1016.0 |
| 20260507124906 | 13 | 227 | 3.2 | 6.4 | 0.00 | 0.00 | 0.00 | 50 | 1016.0 |
| 20260507123912 | 13 | 236 | 3.2 | 6.4 | 0.00 | 0.00 | 0.00 | 49 | 1016.0 |
| 20260507122918 | 13 | 0 | 0.0 | 0.0 | 0.00 | 0.00 | 0.00 | 49 | 1015.9 |
| 20260507121427 | 14 | 0 | 0.0 | 0.0 | 0.00 | 0.00 | 0.00 | 48 | 1015.9 |
| 20260507115439 | 14 | 0 | 0.0 | 0.0 | 0.00 | 0.00 | 0.00 | 48 | 1016.0 |
| 20260507114445 | 14 | 0 | 0.0 | 0.0 | 0.00 | 0.00 | 0.00 | 47 | 1015.2 |
| 20260507113948 | 15 | 0 | 0.0 | 0.0 | 0.00 | 0.00 | 0.00 | 47 | 1015.2 |
| 20260507112457 | 14 | 0 | 0.0 | 4.8 | 0.00 | 0.00 | 0.00 | 49 | 1015.3 |
| 20260507112000 | 14 | 311 | 1.6 | 3.2 | 0.00 | 0.00 | 0.00 | 49 | 1015.4 |
| 20260507111006 | 14 | 311 | 1.6 | 3.2 | 0.00 | 0.00 | 0.00 | 50 | 1015.3 |
| 20260507110012 | 13 | 304 | 1.6 | 6.4 | 0.00 | 0.00 | 0.00 | 51 | 1015.4 |
| 20260507105018 | 13 | 253 | 4.8 | 8.0 | 0.00 | 0.00 | 0.00 | 52 | 1015.4 |
| 20260507104521 | 13 | 0 | 0.0 | 4.8 | 0.00 | 0.00 | 0.00 | 51 | 1015.4 |
| 20260507103030 | 13 | 0 | 0.0 | 0.0 | 0.00 | 0.00 | 0.00 | 53 | 1015.4 |
| 20260507102533 | 13 | 0 | 0.0 | 0.0 | 0.00 | 0.00 | 0.00 | 53 | 1015.5 |
| 20260507102036 | 13 | 0 | 0.0 | 1.6 | 0.00 | 0.00 | 0.00 | 54 | 1015.5 |
| 20260507101042 | 13 | 0 | 0.0 | 3.2 | 0.00 | 0.00 | 0.00 | 55 | 1015.6 |
| 20260507100048 | 13 | 0 | 0.0 | 1.6 | 0.00 | 0.00 | 0.00 | 56 | 1015.6 |
| 20260507095551 | 13 | 0 | 0.0 | 3.2 | 0.00 | 0.00 | 0.00 | 55 | 1015.7 |
| 20260507093603 | 12 | 0 | 0.0 | 4.8 | 0.00 | 0.00 | 0.00 | 60 | 1015.9 |
| 20260507093106 | 12 | 0 | 0.0 | 4.8 | 0.00 | 0.00 | 0.00 | 61 | 1016.1 |
| 20260507092609 | 12 | 0 | 0.0 | 6.4 | 0.00 | 0.00 | 0.00 | 61 | 1016.0 |
| 20260507091118 | 13 | 323 | 4.8 | 9.7 | 0.00 | 0.00 | 0.00 | 61 | 1016.1 |
| 20260507090621 | 13 | 294 | 4.8 | 9.7 | 0.00 | 0.00 | 0.00 | 61 | 1016.2 |
| 20260507085627 | 13 | 291 | 4.8 | 8.0 | 0.00 | 0.00 | 0.00 | 60 | 1016.3 |
| 20260507085130 | 13 | 294 | 1.6 | 8.0 | 0.00 | 0.00 | 0.00 | 60 | 1016.4 |
| 20260507084633 | 13 | 296 | 3.2 | 9.7 | 0.00 | 0.00 | 0.00 | 60 | 1016.5 |
| 20260507084136 | 13 | 293 | 6.4 | 9.7 | 0.00 | 0.00 | 0.00 | 60 | 1016.5 |
| 20260507083639 | 13 | 303 | 4.8 | 11.3 | 0.00 | 0.00 | 0.00 | 60 | 1016.5 |
| 20260507083142 | 13 | 298 | 6.4 | 11.3 | 0.00 | 0.00 | 0.00 | 59 | 1016.5 |
| 20260507081651 | 13 | 292 | 6.4 | 11.3 | 0.00 | 0.00 | 0.00 | 58 | 1016.5 |
| 20260507081154 | 13 | 284 | 8.0 | 11.3 | 0.00 | 0.00 | 0.00 | 58 | 1016.6 |
| 20260507075703 | 13 | 288 | 6.4 | 14.5 | 0.00 | 0.00 | 0.00 | 59 | 1016.7 |
| 20260507075206 | 13 | 281 | 8.0 | 14.5 | 0.00 | 0.00 | 0.00 | 59 | 1016.7 |
| 20260507073715 | 13 | 298 | 6.4 | 14.5 | 0.00 | 0.00 | 0.00 | 61 | 1016.7 |
| 20260507072721 | 13 | 295 | 6.4 | 12.9 | 0.00 | 0.00 | 0.00 | 62 | 1016.6 |
| 20260507071727 | 13 | 287 | 8.0 | 12.9 | 0.00 | 0.00 | 0.00 | 63 | 1016.9 |
| 20260507070733 | 13 | 284 | 9.7 | 14.5 | 0.00 | 0.00 | 0.00 | 63 | 1016.9 |
| 20260507070236 | 13 | 288 | 9.7 | 16.1 | 0.00 | 0.00 | 0.00 | 64 | 1017.0 |
| 20260507065739 | 13 | 286 | 12.9 | 16.1 | 0.00 | 0.00 | 0.00 | 64 | 1016.9 |
| 20260507065242 | 13 | 294 | 8.0 | 16.1 | 0.00 | 0.00 | 0.00 | 64 | 1017.0 |
| 20260507064817 | 13 | 290 | 11.3 | 16.1 | 0.00 | 0.00 | 0.00 | 64 | 1017.0 |
| 20260507064745 | 13 | 290 | 11.3 | 16.1 | 0.00 | 0.00 | 0.00 | 64 | 1017.0 |
| 20260507064248 | 13 | 290 | 11.3 | 16.1 | 0.00 | 0.00 | 0.00 | 65 | 1017.1 |
| 20260507063751 | 13 | 284 | 9.7 | 14.5 | 0.00 | 0.00 | 0.00 | 65 | 1017.1 |
| 20260507063254 | 13 | 282 | 9.7 | 14.5 | 0.00 | 0.00 | 0.00 | 65 | 1016.4 |
| 20260507062757 | 13 | 282 | 9.7 | 14.5 | 0.00 | 0.00 | 0.00 | 65 | 1016.4 |
| 20260507062300 | 13 | 286 | 9.7 | 14.5 | 0.00 | 0.00 | 0.00 | 65 | 1016.3 |
| 20260507061803 | 13 | 288 | 9.7 | 14.5 | 0.00 | 0.00 | 0.00 | 64 | 1016.3 |
| 20260507060809 | 13 | 294 | 9.7 | 14.5 | 0.00 | 0.00 | 0.00 | 65 | 1016.3 |
| 20260507060312 | 13 | 292 | 8.0 | 12.9 | 0.00 | 0.00 | 0.00 | 65 | 1016.4 |
| 20260507055318 | 13 | 282 | 6.4 | 11.3 | 0.00 | 0.00 | 0.00 | 65 | 1016.6 |
| 20260507054821 | 13 | 286 | 4.8 | 14.5 | 0.00 | 0.00 | 0.00 | 65 | 1016.5 |
| 20260507054324 | 13 | 284 | 9.7 | 14.5 | 0.00 | 0.00 | 0.00 | 66 | 1016.4 |
| 20260507053827 | 13 | 286 | 9.7 | 14.5 | 0.00 | 0.00 | 0.00 | 66 | 1016.4 |
| 20260507051342 | 13 | 284 | 9.7 | 14.5 | 0.00 | 0.00 | 0.00 | 69 | 1016.6 |
| 20260507045851 | 13 | 283 | 9.7 | 12.9 | 0.00 | 0.00 | 0.00 | 72 | 1016.6 |
| 20260507045354 | 13 | 283 | 8.0 | 12.9 | 0.00 | 0.00 | 0.00 | 72 | 1016.6 |
| 20260507044857 | 13 | 282 | 9.7 | 12.9 | 0.00 | 0.00 | 0.00 | 72 | 1016.6 |
| 20260507043903 | 13 | 289 | 9.7 | 14.5 | 0.00 | 0.00 | 0.00 | 72 | 1016.6 |
| 20260507043406 | 13 | 290 | 8.0 | 14.5 | 0.00 | 0.00 | 0.00 | 72 | 1016.6 |
| 20260507042412 | 13 | 285 | 9.7 | 16.1 | 0.00 | 0.00 | 0.00 | 73 | 1016.6 |
| 20260507041915 | 13 | 287 | 8.0 | 16.1 | 0.00 | 0.00 | 0.00 | 74 | 1016.6 |
| 20260507041418 | 13 | 288 | 11.3 | 16.1 | 0.00 | 0.00 | 0.00 | 74 | 1016.7 |
| 20260507040424 | 13 | 290 | 8.0 | 16.1 | 0.00 | 0.00 | 0.00 | 76 | 1016.6 |
| 20260507035927 | 13 | 285 | 9.7 | 16.1 | 0.00 | 0.00 | 0.00 | 77 | 1016.5 |
| 20260507034933 | 12 | 280 | 9.7 | 14.5 | 0.00 | 0.00 | 0.00 | 78 | 1016.4 |
| 20260507034436 | 12 | 281 | 9.7 | 16.1 | 0.00 | 0.00 | 0.00 | 78 | 1016.2 |
| 20260507033939 | 12 | 285 | 11.3 | 16.1 | 0.00 | 0.00 | 0.00 | 78 | 1016.2 |
| 20260507032945 | 12 | 289 | 8.0 | 12.9 | 0.00 | 0.00 | 0.00 | 82 | 1016.2 |
| 20260507032448 | 12 | 285 | 8.0 | 11.3 | 0.00 | 0.00 | 0.00 | 82 | 1016.3 |
| 20260507030957 | 12 | 284 | 8.0 | 14.5 | 0.00 | 0.00 | 0.00 | 85 | 1016.2 |
| 20260507030500 | 12 | 284 | 9.7 | 14.5 | 0.00 | 0.00 | 0.00 | 86 | 1016.2 |
| 20260507025506 | 12 | 281 | 9.7 | 14.5 | 0.00 | 0.00 | 0.00 | 87 | 1016.2 |
| 20260507025009 | 12 | 290 | 8.0 | 12.9 | 0.00 | 0.00 | 0.00 | 87 | 1016.3 |
| 20260507024512 | 12 | 290 | 9.7 | 12.9 | 0.00 | 0.00 | 0.00 | 87 | 1016.2 |
| 20260507023021 | 12 | 289 | 6.4 | 19.3 | 0.00 | 0.00 | 0.00 | 85 | 1016.1 |
| 20260507022524 | 13 | 269 | 8.0 | 19.3 | 0.00 | 0.00 | 0.00 | 85 | 1016.0 |
| 20260507022027 | 13 | 273 | 9.7 | 19.3 | 0.00 | 0.00 | 0.00 | 84 | 1016.0 |
| 20260507021033 | 14 | 280 | 9.7 | 19.3 | 0.00 | 0.00 | 0.00 | 81 | 1015.9 |
| 20260507020535 | -17 | 276 | 12.9 | 0.0 | 0.00 | 0.00 | 0.00 | ||
| 20260507020039 | 15 | 293 | 9.7 | 19.3 | 0.00 | 0.00 | 0.00 | 79 | 1015.9 |
| 20260507015542 | 15 | 274 | 11.3 | 20.9 | 0.00 | 0.00 | 0.00 | 78 | 1015.9 |
| 20260507015045 | 15 | 271 | 12.9 | 20.9 | 0.00 | 0.00 | 0.00 | 78 | 1015.8 |
| 20260507014548 | 15 | 280 | 9.7 | 17.7 | 0.00 | 0.00 | 0.00 | 77 | 1015.8 |
| 20260507014051 | 15 | 273 | 11.3 | 17.7 | 0.00 | 0.00 | 0.00 | 76 | 1015.8 |
| 20260507013554 | 16 | 275 | 9.7 | 17.7 | 0.00 | 0.00 | 0.00 | 76 | 1015.9 |
| 20260507013057 | 16 | 284 | 9.7 | 20.9 | 0.00 | 0.00 | 0.00 | 76 | 1015.9 |
| 20260507012644 | 16 | 281 | 11.3 | 24.1 | 0.00 | 0.00 | 0.00 | 75 | 1016.0 |
| 20260507012600 | 16 | 281 | 11.3 | 24.1 | 0.00 | 0.00 | 0.00 | 75 | 1016.0 |
| 20260507012103 | 16 | 269 | 16.1 | 24.1 | 0.00 | 0.00 | 0.00 | 74 | 1016.0 |
| 20260507011650 | 16 | 274 | 14.5 | 20.9 | 0.00 | 0.00 | 0.00 | 73 | 1015.9 |
| 20260507011606 | 16 | 274 | 14.5 | 20.9 | 0.00 | 0.00 | 0.00 | 73 | 1015.9 |
| 20260507011109 | 16 | 263 | 12.9 | 20.9 | 0.00 | 0.00 | 0.00 | 72 | 1016.0 |
| 20260507010612 | 16 | 278 | 9.7 | 20.9 | 0.00 | 0.00 | 0.00 | 73 | 1016.0 |
| 20260507005121 | 17 | 277 | 14.5 | 24.1 | 0.00 | 0.00 | 0.00 | 70 | 1015.2 |
| 20260507004659 | 17 | 275 | 16.1 | 24.1 | 0.00 | 0.00 | 0.00 | 68 | 1015.2 |
| 20260507004624 | 17 | 275 | 16.1 | 24.1 | 0.00 | 0.00 | 0.00 | 68 | 1015.2 |
| 20260507003133 | 17 | 272 | 12.9 | 20.9 | 0.00 | 0.00 | 0.00 | 66 | 1015.3 |
| 20260507001220 | 17 | 263 | 11.3 | 22.5 | 0.00 | 0.00 | 0.00 | 67 | 1015.3 |
| 20260507001145 | 17 | 263 | 11.3 | 22.5 | 0.00 | 0.00 | 0.00 | 67 | 1015.3 |
| 20260506235654 | 17 | 248 | 14.5 | 22.5 | 0.00 | 0.00 | 0.00 | 65 | 1015.2 |
| 20260506232712 | 18 | 277 | 16.1 | 27.4 | 0.00 | 0.00 | 0.00 | 64 | 1015.1 |
| 20260506225730 | 18 | 286 | 16.1 | 20.9 | 0.00 | 0.00 | 0.00 | 59 | 1015.3 |
| 20260506224736 | 19 | 277 | 9.7 | 22.5 | 0.00 | 0.00 | 0.00 | 60 | 1015.5 |
| 20260506223742 | 18 | 261 | 11.3 | 17.7 | 0.00 | 0.00 | 0.00 | 58 | 1015.6 |
| 20260506223245 | 18 | 292 | 6.4 | 19.3 | 0.00 | 0.00 | 0.00 | 62 | |
| 20260506222251 | 18 | 280 | 16.1 | 27.4 | 0.00 | 0.00 | 0.00 | 61 | 1015.8 |
| 20260506221257 | 18 | 280 | 11.3 | 24.1 | 0.00 | 0.00 | 0.00 | 60 | 1015.9 |
| 20260506220303 | 18 | 280 | 14.5 | 22.5 | 0.00 | 0.00 | 0.00 | 61 | 1016.0 |
| 20260506214812 | 18 | 281 | 12.9 | 19.3 | 0.00 | 0.00 | 0.00 | 60 | 1015.4 |
| 20260506212824 | 18 | 253 | 8.0 | 20.9 | 0.00 | 0.00 | 0.00 | 61 | 1015.6 |
| 20260506212327 | 18 | 268 | 11.3 | 0.0 | 0.00 | 0.00 | 0.00 | 63 | 1015.5 |
| 20260506210836 | 17 | 298 | 9.7 | 991.4 | 0.00 | 0.00 | 0.00 | 61 | 1015.8 |
| 20260506203854 | 18 | 282 | 11.3 | 17.7 | 0.00 | 0.00 | 0.00 | 63 | 1015.9 |
| 20260506195421 | 17 | 334 | 3.2 | 16.1 | 0.00 | 0.00 | 0.00 | 58 | 1016.5 |
| 20260506193433 | 17 | 325 | 8.0 | 14.5 | 0.00 | 0.00 | 0.00 | 63 | 1016.6 |
| 20260506191445 | 18 | 4 | 3.2 | 14.5 | 0.00 | 0.00 | 0.00 | 60 | 1016.7 |
| 20260506190451 | 20 | 74 | 9.7 | 19.3 | 0.00 | 0.00 | 0.00 | 49 | 1015.8 |
| 20260506185954 | 20 | 95 | 6.4 | 19.3 | 0.00 | 0.00 | 0.00 | 43 | 1015.9 |
| 20260506185457 | 20 | 54 | 8.0 | 20.9 | 0.00 | 0.00 | 0.00 | 45 | 1016.0 |
| 20260506185000 | 19 | 82 | 12.9 | 20.9 | 0.00 | 0.00 | 0.00 | 48 | 1016.0 |
| 20260506184503 | 19 | 97 | 12.9 | 19.3 | 0.00 | 0.00 | 0.00 | 47 | 1016.0 |
| 20260506184005 | 18 | 32 | 4.8 | 20.9 | 0.00 | 0.03 | 0.00 | 45 | 1016.0 |
| 20260506183509 | 18 | 55 | 8.0 | 20.9 | 0.00 | 0.03 | 0.00 | 46 | 1016.0 |
| 20260506183012 | 18 | 79 | 9.7 | 19.3 | 0.00 | 0.03 | 0.00 | 50 | 1016.1 |
| 20260506182514 | 17 | 78 | 9.7 | 19.3 | 0.00 | 0.03 | 0.00 | 53 | 1016.1 |
| 20260506182018 | 17 | 33 | 8.0 | 12.9 | 0.00 | 0.03 | 0.00 | 50 | 1016.1 |
| 20260506181521 | 16 | 47 | 6.4 | 12.9 | 0.00 | 0.03 | 0.00 | 53 | 1016.2 |
| 20260506181024 | 16 | 318 | 1.6 | 11.3 | 0.00 | 0.03 | 0.00 | 60 | 1016.3 |
| 20260506174539 | 16 | 228 | 3.2 | 8.0 | 0.00 | 0.05 | 0.00 | 61 | 1016.4 |
| 20260506173047 | 16 | 230 | 1.6 | 12.9 | 0.00 | 0.08 | 0.00 | 62 | 1016.4 |
| 20260506172054 | 16 | 312 | 4.8 | 14.5 | 0.00 | 0.10 | 0.00 | 56 | 1016.5 |
| 20260506171557 | 16 | 23 | 4.8 | 14.5 | 0.00 | 0.10 | 0.00 | 46 | 1016.6 |
| 20260506171059 | 16 | 92 | 6.4 | 14.5 | 0.00 | 0.10 | 0.00 | 51 | 1016.5 |
| 20260506170602 | 16 | 172 | 4.8 | 14.5 | 0.00 | 0.10 | 0.00 | 53 | 1016.5 |
| 20260506170106 | 16 | 84 | 3.2 | 11.3 | 0.00 | 0.13 | 0.00 | 52 | 1016.5 |
| 20260506165609 | 16 | 141 | 1.6 | 16.1 | 0.00 | 0.13 | 0.00 | 46 | 1016.5 |
| 20260506165112 | 16 | 37 | 6.4 | 16.1 | 0.00 | 0.15 | 0.00 | 53 | 1016.4 |
| 20260506164615 | 16 | 38 | 3.2 | 19.3 | 0.00 | 0.15 | 0.00 | 55 | 1016.4 |
| 20260506164117 | 15 | 71 | 12.9 | 19.3 | 0.00 | 0.15 | 0.00 | 58 | 1015.6 |
| 20260506163124 | 15 | 281 | 3.2 | 8.0 | 0.00 | 0.15 | 0.00 | 60 | 1015.5 |
| 20260506162627 | 14 | 345 | 4.8 | 8.0 | 0.00 | 0.18 | 0.00 | 61 | 1015.4 |
| 20260506161136 | 13 | 317 | 1.6 | 6.4 | 0.00 | 0.18 | 0.00 | 67 | 1015.4 |
| 20260506160639 | 13 | 292 | 3.2 | 6.4 | 0.00 | 0.20 | 0.00 | 68 | 1015.5 |
| 20260506155148 | 12 | 305 | 4.8 | 11.3 | 0.00 | 0.20 | 0.00 | 67 | 1015.6 |
| 20260506154651 | 12 | 310 | 4.8 | 9.7 | 0.00 | 0.20 | 0.00 | 67 | 1015.4 |
| 20260506154154 | 12 | 318 | 4.8 | 11.3 | 0.00 | 0.23 | 0.00 | 68 | 1015.4 |
| 20260506153656 | 12 | 321 | 6.4 | 11.3 | 0.00 | 0.23 | 0.00 | 68 | 1015.4 |
| 20260506153200 | 12 | 309 | 6.4 | 11.3 | 0.00 | 0.23 | 0.00 | 69 | 1015.4 |
| 20260506152703 | 11 | 319 | 8.0 | 11.3 | 0.00 | 0.25 | 0.00 | 69 | 1015.3 |
| 20260506152206 | 11 | 317 | 4.8 | 12.9 | 0.00 | 0.25 | 0.00 | 70 | 1015.3 |
| 20260506151709 | 11 | 313 | 6.4 | 12.9 | 0.00 | 0.25 | 0.00 | 71 | 1015.3 |
| 20260506151212 | 11 | 317 | 6.4 | 11.3 | 0.00 | 0.25 | 0.00 | 72 | 1015.4 |
| 20260506150715 | 11 | 319 | 4.8 | 9.7 | 0.00 | 0.25 | 0.00 | 73 | 1015.4 |
| 20260506150217 | 10 | 318 | 3.2 | 9.7 | 0.00 | 0.25 | 0.00 | 74 | 1015.3 |
| 20260506145721 | 10 | 298 | 4.8 | 12.9 | 0.00 | 0.25 | 0.00 | 75 | 1015.2 |
| 20260506145224 | 10 | 306 | 3.2 | 12.9 | 0.00 | 0.25 | 0.00 | 76 | 1015.4 |
| 20260506144727 | 10 | 287 | 6.4 | 11.3 | 0.00 | 0.25 | 0.00 | 77 | 1015.3 |
| 20260506144230 | 9 | 295 | 6.4 | 12.9 | 0.00 | 0.25 | 0.00 | 77 | 1015.3 |
| 20260506143733 | 9 | 291 | 4.8 | 12.9 | 0.00 | 0.25 | 0.25 | 78 | 1015.2 |
| 20260506143236 | 8 | 292 | 8.0 | 12.9 | 0.00 | 0.25 | 0.25 | 79 | 1015.1 |
| 20260506142739 | 8 | 289 | 8.0 | 14.5 | 0.00 | 0.25 | 0.25 | 80 | 1015.1 |
| 20260506142242 | 8 | 300 | 6.4 | 14.5 | 0.00 | 0.25 | 0.25 | 82 | 1015.0 |
| 20260506141745 | 8 | 307 | 6.4 | 14.5 | 0.00 | 0.25 | 0.25 | 85 | 1014.9 |
| 20260506141248 | 7 | 314 | 3.2 | 8.0 | 0.00 | 0.28 | 0.25 | 86 | 1015.0 |
| 20260506140835 | 7 | 301 | 4.8 | 9.7 | 0.00 | 0.28 | 0.25 | 87 | 1014.9 |
| 20260506140751 | 7 | 301 | 4.8 | 9.7 | 0.00 | 0.28 | 0.25 | 87 | 1014.9 |
| 20260506140254 | 7 | 298 | 6.4 | 11.3 | 0.00 | 0.28 | 0.25 | 88 | 1014.9 |
| 20260506135757 | 6 | 295 | 4.8 | 11.3 | 0.00 | 0.30 | 0.25 | 89 | 1014.9 |
| 20260506135300 | 6 | 300 | 6.4 | 11.3 | 0.00 | 0.33 | 0.25 | 89 | 1015.0 |
| 20260506134803 | 6 | 311 | 4.8 | 11.3 | 0.00 | 0.33 | 0.25 | 90 | 1014.9 |
| 20260506134306 | 6 | 299 | 3.2 | 14.5 | 0.00 | 0.33 | 0.25 | 90 | 1014.8 |
| 20260506133809 | 6 | 316 | 6.4 | 16.1 | 0.00 | 0.36 | 0.25 | 91 | 1014.7 |
| 20260506133312 | 6 | 277 | 8.0 | 16.1 | 0.00 | 0.36 | 0.25 | 91 | 1014.6 |
| 20260506132815 | 6 | 286 | 8.0 | 16.1 | 0.00 | 0.36 | 0.25 | 91 | 1014.7 |
| 20260506132318 | 5 | 293 | 8.0 | 19.3 | 0.00 | 0.36 | 0.25 | 92 | 1014.6 |
| 20260506131821 | 5 | 283 | 9.7 | 19.3 | 0.00 | 0.38 | 0.25 | 92 | 1014.6 |
| 20260506131323 | 5 | 287 | 8.0 | 16.1 | 0.00 | 0.41 | 0.25 | 93 | 1014.4 |
| 20260506130827 | 5 | 277 | 11.3 | 19.3 | 0.00 | 0.43 | 0.25 | 92 | 1014.4 |
| 20260506130330 | 5 | 280 | 11.3 | 19.3 | 0.00 | 0.46 | 0.25 | 93 | 1014.4 |
| 20260506125833 | 5 | 282 | 8.0 | 17.7 | 0.00 | 0.46 | 0.25 | 92 | 1014.3 |